�������l�o���
Date,Time,MP-1(��Sv/h),MP-2(��Sv/h),MP-3(��Sv/h),MP-4(��Sv/h),MP-5(��Sv/h),MP-6(��Sv/h),MP-7(��Sv/h),MP-8(��Sv/h),����,����(m/s),���J
2023/01/12,00:00,0.574,0.829,0.518,1.064,0.734,0.326,0.588,0.558,���쐼,5.2,��
2023/01/12,00:10,0.574,0.828,0.520,1.061,0.733,0.326,0.589,0.559,���쐼,6.1,��
2023/01/12,00:20,0.575,0.828,0.519,1.061,0.732,0.325,0.588,0.560,���쐼,5.3,��
2023/01/12,00:30,0.573,0.831,0.520,1.064,0.734,0.326,0.589,0.558,���쐼,5.2,��
2023/01/12,00:40,0.572,0.829,0.521,1.064,0.734,0.327,0.589,0.558,���쐼,5.2,��
2023/01/12,00:50,0.572,0.829,0.519,1.065,0.732,0.326,0.591,0.559,��,3.6,��
2023/01/12,01:00,0.574,0.829,0.519,1.063,0.733,0.325,0.588,0.559,��,5.6,��
2023/01/12,01:10,0.575,0.829,0.519,1.064,0.733,0.325,0.588,0.559,��,5.3,��
2023/01/12,01:20,0.574,0.828,0.521,1.062,0.733,0.327,0.588,0.559,��,6.0,��
2023/01/12,01:30,0.574,0.829,0.521,1.066,0.734,0.325,0.589,0.560,��,5.8,��
2023/01/12,01:40,0.575,0.829,0.520,1.065,0.735,0.326,0.586,0.559,���쐼,6.9,��
2023/01/12,01:50,0.573,0.830,0.520,1.062,0.734,0.326,0.588,0.560,���쐼,5.0,��
2023/01/12,02:00,0.574,0.829,0.520,1.063,0.734,0.325,0.588,0.559,���쐼,3.9,��
2023/01/12,02:10,0.573,0.830,0.519,1.064,0.735,0.325,0.588,0.560,�쐼,3.2,��
2023/01/12,02:20,0.573,0.828,0.519,1.065,0.733,0.325,0.588,0.559,���쐼,3.0,��
2023/01/12,02:30,0.575,0.830,0.519,1.065,0.732,0.325,0.588,0.557,���쐼,2.2,��
2023/01/12,02:40,0.573,0.829,0.520,1.063,0.733,0.326,0.588,0.560,�k��,1.9,��
2023/01/12,02:50,0.573,0.828,0.518,1.063,0.733,0.326,0.588,0.559,���k��,2.3,��
2023/01/12,03:00,0.573,0.827,0.519,1.062,0.732,0.326,0.587,0.559,���k��,2.1,��
2023/01/12,03:10,0.573,0.829,0.519,1.064,0.734,0.326,0.588,0.559,��,2.1,��
2023/01/12,03:20,0.574,0.831,0.519,1.061,0.733,0.326,0.588,0.558,�쐼,2.7,��
2023/01/12,03:30,0.574,0.828,0.519,1.062,0.733,0.327,0.588,0.558,�쐼,3.8,��
2023/01/12,03:40,0.573,0.827,0.520,1.062,0.735,0.326,0.588,0.559,���쐼,5.8,��
2023/01/12,03:50,0.574,0.828,0.520,1.067,0.733,0.325,0.588,0.558,��,4.4,��
2023/01/12,04:00,0.574,0.829,0.520,1.062,0.732,0.326,0.589,0.559,��,4.4,��
2023/01/12,04:10,0.574,0.830,0.520,1.064,0.731,0.325,0.589,0.561,��,5.8,��
2023/01/12,04:20,0.574,0.830,0.518,1.066,0.733,0.325,0.589,0.559,��,5.2,��
2023/01/12,04:30,0.572,0.829,0.518,1.062,0.733,0.325,0.589,0.559,��,5.0,��
2023/01/12,04:40,0.575,0.832,0.518,1.064,0.732,0.325,0.589,0.557,��,5.8,��
2023/01/12,04:50,0.574,0.829,0.520,1.064,0.735,0.325,0.587,0.558,��,6.7,��
2023/01/12,05:00,0.574,0.829,0.520,1.063,0.732,0.325,0.589,0.559,��,7.7,��
2023/01/12,05:10,0.574,0.829,0.519,1.066,0.733,0.326,0.588,0.559,��,7.7,��
2023/01/12,05:20,0.575,0.830,0.519,1.065,0.735,0.325,0.587,0.558,��,7.5,��
2023/01/12,05:30,0.574,0.829,0.520,1.065,0.734,0.325,0.588,0.558,��,8.6,��
2023/01/12,05:40,0.574,0.827,0.518,1.062,0.734,0.325,0.588,0.558,��,8.0,��
2023/01/12,05:50,0.573,0.830,0.519,1.063,0.731,0.327,0.588,0.559,��,7.5,��
2023/01/12,06:00,0.573,0.830,0.519,1.062,0.734,0.327,0.589,0.558,��,9.3,��
2023/01/12,06:10,0.573,0.829,0.518,1.063,0.733,0.325,0.590,0.559,��,7.4,��
2023/01/12,06:20,0.573,0.828,0.520,1.065,0.734,0.326,0.589,0.559,��,6.9,��
2023/01/12,06:30,0.575,0.828,0.519,1.065,0.735,0.325,0.590,0.558,��,6.6,��
2023/01/12,06:40,0.575,0.829,0.520,1.065,0.732,0.325,0.588,0.559,��,5.5,��
2023/01/12,06:50,0.574,0.828,0.518,1.063,0.733,0.325,0.588,0.560,��,4.4,��
2023/01/12,07:00,0.572,0.827,0.518,1.065,0.735,0.325,0.589,0.559,�쐼,3.1,��
2023/01/12,07:10,0.573,0.829,0.520,1.064,0.733,0.325,0.589,0.559,��,3.8,��
2023/01/12,07:20,0.574,0.828,0.518,1.063,0.734,0.324,0.588,0.558,��,3.8,��
2023/01/12,07:30,0.573,0.827,0.519,1.065,0.732,0.326,0.589,0.558,��,2.1,��
2023/01/12,07:40,0.572,0.829,0.520,1.063,0.732,0.324,0.586,0.558,�쐼,0.8,��
2023/01/12,07:50,0.573,0.829,0.520,1.063,0.734,0.327,0.588,0.558,�k��,1.7,��
2023/01/12,08:00,0.575,0.826,0.520,1.064,0.733,0.325,0.589,0.560,���k��,1.5,��
2023/01/12,08:10,0.574,0.826,0.518,1.066,0.733,0.326,0.589,0.559,�k��,1.4,��
2023/01/12,08:20,0.573,0.829,0.519,1.063,0.732,0.326,0.588,0.559,�쓌,1.6,��
2023/01/12,08:30,0.573,0.828,0.521,1.065,0.733,0.324,0.588,0.559,�k��,1.1,��
2023/01/12,08:40,0.574,0.826,0.521,1.065,0.732,0.325,0.588,0.559,�k�k��,3.1,��
2023/01/12,08:50,0.574,0.827,0.519,1.065,0.734,0.324,0.589,0.559,�k,3.8,��
2023/01/12,09:00,0.575,0.830,0.518,1.064,0.733,0.324,0.589,0.559,�k�k��,2.4,��
2023/01/12,09:10,0.575,0.828,0.517,1.065,0.734,0.326,0.589,0.559,�k��,1.5,��
2023/01/12,09:20,0.574,0.829,0.519,1.064,0.732,0.325,0.589,0.558,���k��,0.5,��
2023/01/12,09:30,0.575,0.830,0.519,1.064,0.733,0.325,0.590,0.559,���k��,0.9,��
2023/01/12,09:40,0.574,0.828,0.520,1.065,0.733,0.325,0.589,0.558,�쓌,1.4,��
2023/01/12,09:50,0.576,0.830,0.517,1.065,0.733,0.326,0.589,0.559,���쓌,1.3,��
2023/01/12,10:00,0.577,0.829,0.519,1.064,0.735,0.327,0.589,0.560,��,1.3,��
2023/01/12,10:10,0.574,0.827,0.520,1.065,0.734,0.326,0.588,0.559,���쐼,1.8,��
2023/01/12,10:20,0.574,0.826,0.520,1.064,0.732,0.327,0.587,0.561,��쐼,1.5,��
2023/01/12,10:30,0.575,0.825,0.519,1.064,0.733,0.326,0.587,0.558,��쐼,1.8,��
2023/01/12,10:40,0.575,0.828,0.517,1.063,0.734,0.326,0.589,0.559,��,1.6,��
2023/01/12,10:50,0.576,0.827,0.511,1.064,0.735,0.327,0.588,0.559,��,1.6,��
2023/01/12,11:00,0.574,0.830,0.511,1.065,0.735,0.326,0.589,0.559,��쐼,1.3,��
2023/01/12,11:10,0.568,0.830,0.513,1.064,0.735,0.325,0.590,0.559,���k��,0.6,��
2023/01/12,11:20,0.573,0.828,0.520,1.063,0.734,0.326,0.588,0.561,���쐼,1.6,��
2023/01/12,11:30,0.572,0.829,0.514,1.062,0.734,0.325,0.588,0.559,�쐼,2.8,��
2023/01/12,11:40,0.573,0.831,0.515,1.066,0.736,0.326,0.586,0.559,��쐼,4.9,��
2023/01/12,11:50,0.576,0.831,0.517,1.064,0.736,0.327,0.588,0.558,���쐼,4.1,��
2023/01/12,12:00,0.577,0.832,0.518,1.064,0.735,0.327,0.587,0.560,��쐼,3.4,��
2023/01/12,12:10,0.576,0.832,0.519,1.066,0.734,0.327,0.588,0.561,��쐼,3.2,��
2023/01/12,12:20,0.576,0.832,0.521,1.065,0.734,0.327,0.587,0.559,��쐼,2.6,��
2023/01/12,12:30,0.576,0.832,0.520,1.065,0.734,0.326,0.588,0.560,��,2.5,��
2023/01/12,12:40,0.578,0.832,0.521,1.065,0.737,0.326,0.589,0.559,��쐼,2.3,��
2023/01/12,12:50,0.575,0.830,0.520,1.064,0.734,0.326,0.589,0.560,��쐼,2.2,��
2023/01/12,13:00,0.577,0.827,0.521,1.066,0.736,0.326,0.588,0.560,��쐼,2.2,��
2023/01/12,13:10,0.576,0.827,0.519,1.068,0.737,0.326,0.589,0.558,��쐼,2.8,��
2023/01/12,13:20,0.576,0.826,0.518,1.064,0.735,0.326,0.589,0.558,�쐼,2.1,��
2023/01/12,13:30,0.578,0.828,0.518,1.066,0.734,0.327,0.590,0.560,�쐼,1.8,��
2023/01/12,13:40,0.578,0.829,0.520,1.064,0.736,0.326,0.589,0.560,��,3.1,��
2023/01/12,13:50,0.577,0.830,0.520,1.064,0.736,0.326,0.589,0.560,��,3.8,��
2023/01/12,14:00,0.577,0.829,0.520,1.064,0.735,0.327,0.588,0.560,��,6.3,��
2023/01/12,14:10,0.577,0.831,0.520,1.067,0.735,0.326,0.589,0.560,���k��,4.7,��
2023/01/12,14:20,0.577,0.828,0.520,1.066,0.736,0.326,0.587,0.559,���k��,4.4,��
2023/01/12,14:30,0.577,0.828,0.519,1.066,0.735,0.326,0.589,0.558,��,2.6,��
2023/01/12,14:40,0.575,0.827,0.520,1.064,0.734,0.326,0.587,0.559,���k��,2.5,��
2023/01/12,14:50,0.576,0.828,0.519,1.063,0.737,0.327,0.588,0.559,���k��,1.9,��
2023/01/12,15:00,0.576,0.829,0.520,1.067,0.738,0.328,0.588,0.558,���k��,1.8,��
2023/01/12,15:10,0.579,0.831,0.519,1.066,0.735,0.326,0.589,0.558,���k��,2.9,��
2023/01/12,15:20,0.578,0.830,0.522,1.065,0.735,0.326,0.588,0.560,�k�k��,2.1,��
2023/01/12,15:30,0.578,0.831,0.520,1.067,0.736,0.327,0.589,0.560,�k�k��,2.3,��
2023/01/12,15:40,0.577,0.831,0.520,1.067,0.735,0.325,0.588,0.560,���k��,2.8,��
2023/01/12,15:50,0.577,0.831,0.520,1.065,0.736,0.327,0.590,0.559,���k��,4.7,��
2023/01/12,16:00,0.576,0.831,0.520,1.066,0.736,0.326,0.588,0.561,���k��,4.9,��
2023/01/12,16:10,0.573,0.831,0.517,1.065,0.735,0.326,0.589,0.561,���k��,5.2,��
2023/01/12,16:20,0.570,0.831,0.520,1.066,0.737,0.327,0.590,0.559,���k��,5.0,��
2023/01/12,16:30,0.570,0.830,0.521,1.066,0.736,0.327,0.587,0.559,���k��,4.1,��
2023/01/12,16:40,0.570,0.831,0.519,1.066,0.737,0.326,0.587,0.559,���k��,4.5,��
2023/01/12,16:50,0.575,0.830,0.519,1.067,0.734,0.326,0.588,0.558,���k��,3.4,��
2023/01/12,17:00,0.577,0.830,0.520,1.064,0.734,0.326,0.589,0.560,���k��,3.2,��
2023/01/12,17:10,0.577,0.832,0.518,1.066,0.734,0.327,0.590,0.559,��,3.6,��
2023/01/12,17:20,0.577,0.831,0.518,1.064,0.736,0.326,0.588,0.559,��,2.8,��
2023/01/12,17:30,0.576,0.832,0.518,1.068,0.734,0.326,0.588,0.559,��,2.3,��
2023/01/12,17:40,0.575,0.830,0.519,1.066,0.736,0.325,0.589,0.558,���쐼,2.9,��
2023/01/12,17:50,0.575,0.832,0.520,1.066,0.735,0.327,0.589,0.559,��,4.1,��
2023/01/12,18:00,0.577,0.829,0.519,1.067,0.734,0.325,0.589,0.558,��,5.0,��
2023/01/12,18:10,0.575,0.830,0.520,1.066,0.735,0.325,0.590,0.557,��,4.5,��
2023/01/12,18:20,0.577,0.827,0.519,1.064,0.736,0.326,0.589,0.557,���k��,4.7,��
2023/01/12,18:30,0.577,0.829,0.520,1.066,0.736,0.326,0.590,0.558,���k��,2.5,��
2023/01/12,18:40,0.574,0.831,0.520,1.062,0.733,0.326,0.589,0.558,���k��,2.5,��
2023/01/12,18:50,0.575,0.830,0.518,1.065,0.736,0.326,0.590,0.559,���k��,2.8,��
2023/01/12,19:00,0.576,0.831,0.518,1.066,0.734,0.325,0.589,0.558,���k��,4.1,��
2023/01/12,19:10,0.575,0.830,0.518,1.065,0.735,0.326,0.590,0.559,�k��,4.4,��
2023/01/12,19:20,0.574,0.831,0.518,1.064,0.735,0.327,0.588,0.559,���k��,5.0,��
2023/01/12,19:30,0.575,0.830,0.519,1.067,0.734,0.326,0.589,0.559,���k��,5.5,��
2023/01/12,19:40,0.576,0.833,0.519,1.066,0.733,0.325,0.589,0.558,���k��,5.0,��
2023/01/12,19:50,0.576,0.831,0.519,1.064,0.735,0.326,0.589,0.559,���k��,4.7,��
2023/01/12,20:00,0.575,0.832,0.520,1.066,0.735,0.326,0.588,0.558,���k��,4.7,��
2023/01/12,20:10,0.576,0.830,0.519,1.065,0.735,0.326,0.588,0.556,���k��,3.6,��
2023/01/12,20:20,0.575,0.831,0.519,1.065,0.735,0.326,0.587,0.559,��,3.0,��
2023/01/12,20:30,0.576,0.830,0.519,1.063,0.734,0.326,0.588,0.558,���쐼,2.2,��
2023/01/12,20:40,0.574,0.830,0.518,1.065,0.735,0.326,0.589,0.558,��,3.6,��
2023/01/12,20:50,0.575,0.829,0.520,1.064,0.733,0.328,0.588,0.557,��,3.2,��
2023/01/12,21:00,0.576,0.830,0.518,1.065,0.734,0.326,0.588,0.558,��,3.3,��
2023/01/12,21:10,0.575,0.831,0.518,1.064,0.736,0.324,0.589,0.559,��,4.4,��
2023/01/12,21:20,0.575,0.829,0.517,1.066,0.734,0.326,0.588,0.559,��,2.7,��
2023/01/12,21:30,0.576,0.831,0.518,1.065,0.736,0.325,0.588,0.558,��,2.8,��
2023/01/12,21:40,0.576,0.829,0.518,1.066,0.735,0.326,0.588,0.558,���쐼,2.4,��
2023/01/12,21:50,0.575,0.828,0.520,1.065,0.734,0.325,0.588,0.558,��,3.8,��
2023/01/12,22:00,0.574,0.831,0.517,1.063,0.735,0.326,0.588,0.557,���쐼,3.1,��
2023/01/12,22:10,0.574,0.830,0.519,1.064,0.733,0.325,0.587,0.557,���쐼,2.4,��
2023/01/12,22:20,0.576,0.830,0.518,1.064,0.735,0.325,0.587,0.558,���쐼,3.6,��
2023/01/12,22:30,0.575,0.833,0.518,1.065,0.734,0.326,0.587,0.557,���쐼,4.4,��
2023/01/12,22:40,0.575,0.829,0.516,1.065,0.735,0.326,0.587,0.559,��,5.0,��
2023/01/12,22:50,0.575,0.831,0.520,1.064,0.735,0.325,0.587,0.558,��,5.2,��
2023/01/12,23:00,0.573,0.829,0.519,1.063,0.735,0.326,0.587,0.559,��,5.6,��
2023/01/12,23:10,0.573,0.829,0.516,1.065,0.734,0.324,0.585,0.558,��,5.2,��
2023/01/12,23:20,0.574,0.830,0.518,1.064,0.734,0.326,0.589,0.557,��,5.0,��
2023/01/12,23:30,0.573,0.828,0.518,1.066,0.736,0.325,0.588,0.559,��,6.3,��
2023/01/12,23:40,0.573,0.831,0.518,1.062,0.735,0.326,0.587,0.557,���쐼,4.9,��
2023/01/12,23:50,0.573,0.830,0.517,1.066,0.736,0.326,0.587,0.558,���쐼,3.6,��
